Location: Shenandoah County Park
(38.9356°N, 78.4524°W)
Time: 13:43:03
(UTC-04:00)

Envisat - Pass Details

Date: 02 June 2024
Orbit: 762 x 764 km, 98.3° (Epoch: 14 June)

Event Time Altitude Azimuth Distance (km) Brightness Sun altitude
Rises 02:58:48 0° 39° (NE) 3,230 7.6 -23.9°
Reaches altitude 10° 03:04:12 10° 87° (E) 2,296 5.8 -23.4°
Maximum altitude 03:04:21 10° 89° (E) 2,294 5.8 -23.4°
Drops below altitude 10° 03:04:29 10° 90° (E) 2,295 5.8 -23.4°
Enters shadow 03:09:04 - 134° (SE) 2,996 5.9 -22.9°
